| time (UTC) | temp F | wind direction | speed MPH | gust MPH | rain 1hr in | rain 24hr in | rain mn in | humidity % | barometer mb |
| 20260508122004 | 49 | 169 | 9.0 | 11.0 | 0.00 | 0.02 | 0.02 | 50 | 1025.2 |
| 20260508121502 | 49 | 207 | 2.0 | 9.0 | 0.00 | 0.02 | 0.02 | 51 | 1025.2 |
| 20260508120959 | 49 | 156 | 8.0 | 9.0 | 0.00 | 0.02 | 0.02 | 49 | 1025.0 |
| 20260508120457 | 48 | 144 | 4.0 | 9.0 | 0.00 | 0.02 | 0.02 | 54 | 1025.3 |
| 20260508115955 | 48 | 73 | 2.0 | 7.0 | 0.00 | 0.02 | 0.02 | 53 | 1025.4 |
| 20260508115452 | 47 | 156 | 6.0 | 11.0 | 0.00 | 0.02 | 0.02 | 56 | 1025.0 |
| 20260508114948 | 47 | 173 | 11.0 | 13.0 | 0.00 | 0.02 | 0.02 | 58 | 1025.2 |
| 20260508114446 | 46 | 143 | 4.0 | 13.0 | 0.00 | 0.02 | 0.02 | 53 | 1025.2 |
| 20260508113942 | 47 | 138 | 3.0 | 11.0 | 0.00 | 0.02 | 0.02 | 56 | 1025.1 |
| 20260508113440 | 46 | 199 | 2.0 | 6.0 | 0.00 | 0.02 | 0.02 | 61 | 1024.9 |
| 20260508112937 | 46 | 81 | 5.0 | 7.0 | 0.00 | 0.02 | 0.02 | 61 | 1025.3 |
| 20260508112433 | 45 | 77 | 6.0 | 8.0 | 0.00 | 0.02 | 0.02 | 66 | 1025.3 |
| 20260508111930 | 43 | 102 | 4.0 | 9.0 | 0.00 | 0.02 | 0.02 | 67 | 1025.2 |
| 20260508111427 | 42 | 132 | 6.0 | 13.0 | 0.00 | 0.02 | 0.02 | 72 | 1025.4 |
| 20260508110924 | 41 | 161 | 2.0 | 8.0 | 0.00 | 0.02 | 0.02 | 75 | 1025.4 |
| 20260508110422 | 41 | 97 | 6.0 | 10.0 | 0.00 | 0.02 | 0.02 | 74 | 1025.4 |
| 20260508105921 | 42 | 163 | 5.0 | 9.0 | 0.00 | 0.02 | 0.02 | 74 | 1025.4 |
| 20260508105418 | 43 | 155 | 7.0 | 9.0 | 0.00 | 0.02 | 0.02 | 71 | 1025.1 |
| 20260508104915 | 43 | 88 | 5.0 | 5.0 | 0.00 | 0.02 | 0.02 | 66 | 1025.1 |
| 20260508104413 | 42 | 308 | 2.0 | 4.0 | 0.00 | 0.02 | 0.02 | 68 | 1024.9 |
| 20260508103909 | 42 | 9 | 3.0 | 5.0 | 0.00 | 0.02 | 0.02 | 68 | 1025.0 |
| 20260508103407 | 42 | 26 | 3.0 | 5.0 | 0.00 | 0.02 | 0.02 | 69 | 1025.0 |
| 20260508102904 | 42 | 355 | 4.0 | 8.0 | 0.00 | 0.02 | 0.02 | 72 | 1025.0 |
| 20260508102402 | 42 | 302 | 7.0 | 12.0 | 0.00 | 0.02 | 0.02 | 72 | 1024.8 |
| 20260508101859 | 42 | 301 | 6.0 | 13.0 | 0.00 | 0.02 | 0.02 | 73 | 1024.7 |
| 20260508101356 | 43 | 300 | 11.0 | 18.0 | 0.00 | 0.02 | 0.02 | 71 | 1024.7 |
| 20260508100853 | 45 | 309 | 3.0 | 5.0 | 0.00 | 0.02 | 0.02 | 59 | 1024.5 |
| 20260508100352 | 46 | 288 | 5.0 | 8.0 | 0.00 | 0.02 | 0.02 | 62 | 1024.4 |
| 20260508095847 | 46 | 312 | 4.0 | 5.0 | 0.00 | 0.02 | 0.02 | 60 | 1024.6 |
| 20260508095346 | 46 | 318 | 3.0 | 4.0 | 0.00 | 0.02 | 0.02 | 62 | 1024.5 |
| 20260508094842 | 45 | 157 | 2.0 | 5.0 | 0.00 | 0.02 | 0.02 | 60 | 1024.6 |
| 20260508094339 | 44 | 78 | 2.0 | 4.0 | 0.00 | 0.02 | 0.02 | 66 | 1024.5 |
| 20260508093836 | 43 | 78 | 3.0 | 4.0 | 0.00 | 0.02 | 0.02 | 65 | 1024.6 |
| 20260508093333 | 43 | 78 | 2.0 | 4.0 | 0.00 | 0.02 | 0.02 | 65 | 1024.4 |
| 20260508092831 | 42 | 348 | 3.0 | 5.0 | 0.00 | 0.02 | 0.02 | 67 | 1024.5 |
| 20260508092329 | 42 | 359 | 3.0 | 5.0 | 0.00 | 0.02 | 0.02 | 69 | 1024.5 |
| 20260508091827 | 43 | 327 | 1.0 | 4.0 | 0.00 | 0.02 | 0.02 | 72 | 1024.4 |
| 20260508091323 | 43 | 328 | 4.0 | 4.0 | 0.00 | 0.02 | 0.02 | 71 | 1024.3 |
| 20260508090821 | 42 | 359 | 3.0 | 4.0 | 0.00 | 0.02 | 0.02 | 72 | 1024.4 |
| 20260508090319 | 42 | 339 | 2.0 | 6.0 | 0.00 | 0.02 | 0.02 | 73 | 1024.5 |
| 20260508085814 | 42 | 12 | 4.0 | 6.0 | 0.00 | 0.02 | 0.02 | 70 | 1024.5 |
| 20260508085311 | 43 | 308 | 5.0 | 5.0 | 0.00 | 0.02 | 0.02 | 71 | 1024.5 |
| 20260508084808 | 44 | 346 | 1.0 | 4.0 | 0.00 | 0.02 | 0.02 | 69 | 1024.2 |
| 20260508084305 | 44 | 77 | 1.0 | 2.0 | 0.00 | 0.02 | 0.02 | 68 | 1024.4 |
| 20260508083802 | 43 | 67 | 0.0 | 4.0 | 0.00 | 0.02 | 0.02 | 71 | 1024.4 |
| 20260508083300 | 42 | 38 | 2.0 | 3.0 | 0.00 | 0.02 | 0.02 | 73 | 1024.4 |
| 20260508082759 | 42 | 340 | 2.0 | 4.0 | 0.00 | 0.02 | 0.02 | 76 | 1024.2 |
| 20260508082257 | 42 | 309 | 4.0 | 4.0 | 0.00 | 0.02 | 0.02 | 76 | 1024.1 |
| 20260508081754 | 42 | 28 | 6.0 | 6.0 | 0.00 | 0.02 | 0.02 | 74 | 1024.0 |
| 20260508081251 | 42 | 93 | 2.0 | 4.0 | 0.02 | 0.02 | 0.02 | 75 | 1024.1 |
| 20260508080748 | 41 | 57 | 5.0 | 6.0 | 0.02 | 0.02 | 0.02 | 75 | 1024.2 |
| 20260508080246 | 40 | 78 | 4.0 | 7.0 | 0.00 | 0.01 | 0.01 | 78 | 1024.0 |
| 20260508075742 | 40 | 59 | 4.0 | 6.0 | 0.02 | 0.01 | 0.01 | 78 | 1024.1 |
| 20260508075239 | 40 | 109 | 3.0 | 11.0 | 0.02 | 0.01 | 0.01 | 78 | 1024.3 |
| 20260508074737 | 40 | 159 | 4.0 | 6.0 | 0.00 | 0.01 | 0.01 | 77 | 1024.0 |
| 20260508074234 | 40 | 141 | 8.0 | 11.0 | 0.00 | 0.01 | 0.01 | 78 | 1023.9 |
| 20260508073731 | 40 | 135 | 6.0 | 7.0 | 0.00 | 0.01 | 0.01 | 79 | 1023.9 |
| 20260508073229 | 40 | 129 | 5.0 | 8.0 | 0.00 | 0.01 | 0.01 | 79 | 1023.9 |
| 20260508072725 | 40 | 164 | 7.0 | 11.0 | 0.00 | 0.01 | 0.01 | 76 | 1023.9 |
| 20260508072222 | 41 | 148 | 4.0 | 11.0 | 0.00 | 0.01 | 0.01 | 74 | 1024.0 |
| 20260508071719 | 42 | 164 | 11.0 | 13.0 | 0.00 | 0.01 | 0.01 | 71 | 1023.8 |
| 20260508071217 | 42 | 136 | 5.0 | 9.0 | 0.00 | 0.01 | 0.01 | 66 | 1023.5 |
| 20260508070714 | 43 | 155 | 8.0 | 10.0 | 0.00 | 0.01 | 0.01 | 67 | 1023.2 |
| 20260508070213 | 44 | 136 | 6.0 | 11.0 | 0.00 | 0.01 | 0.01 | 62 | 1023.2 |
| 20260508065710 | 44 | 138 | 2.0 | 8.0 | 0.00 | 0.01 | 0.01 | 62 | 1023.2 |
| 20260508065208 | 43 | 222 | 0.0 | 4.0 | 0.00 | 0.01 | 0.01 | 66 | 1023.1 |
| 20260508064705 | 43 | 265 | 2.0 | 3.0 | 0.00 | 0.01 | 0.01 | 69 | 1023.1 |
| 20260508064203 | 44 | 155 | 2.0 | 3.0 | 0.00 | 0.01 | 0.01 | 64 | 1023.1 |
| 20260508063700 | 43 | 33 | 2.0 | 3.0 | 0.00 | 0.01 | 0.01 | 65 | 1023.1 |
| 20260508063158 | 42 | 103 | 2.0 | 3.0 | 0.00 | 0.01 | 0.01 | 67 | 1023.1 |
| 20260508062655 | 42 | 91 | 2.0 | 5.0 | 0.00 | 0.01 | 0.01 | 68 | 1023.0 |
| 20260508062152 | 41 | 105 | 2.0 | 6.0 | 0.00 | 0.01 | 0.01 | 68 | 1023.1 |
| 20260508061649 | 41 | 159 | 4.0 | 6.0 | 0.00 | 0.01 | 0.01 | 69 | 1022.8 |
| 20260508061147 | 41 | 131 | 4.0 | 5.0 | 0.00 | 0.01 | 0.01 | 71 | 1023.0 |
| 20260508060643 | 41 | 147 | 4.0 | 7.0 | 0.00 | 0.01 | 0.01 | 71 | 1022.8 |
| 20260508060141 | 40 | 149 | 8.0 | 9.0 | 0.00 | 0.01 | 0.01 | 73 | 1022.8 |
| 20260508055636 | 40 | 71 | 2.0 | 4.0 | 0.00 | 0.01 | 0.01 | 77 | 1023.0 |
| 20260508055133 | 40 | 75 | 4.0 | 4.0 | 0.00 | 0.01 | 0.01 | 77 | 1022.7 |
| 20260508054629 | 40 | 143 | 4.0 | 5.0 | 0.00 | 0.01 | 0.01 | 77 | 1022.8 |
| 20260508054127 | 40 | 56 | 2.0 | 5.0 | 0.00 | 0.01 | 0.01 | 78 | 1022.7 |
| 20260508053624 | 39 | 107 | 6.0 | 7.0 | 0.00 | 0.01 | 0.01 | 77 | 1022.7 |
| 20260508053122 | 39 | 104 | 4.0 | 8.0 | 0.00 | 0.01 | 0.01 | 80 | 1022.6 |
| 20260508052619 | 39 | 125 | 3.0 | 4.0 | 0.00 | 0.01 | 0.01 | 83 | 1022.7 |
| 20260508052116 | 39 | 94 | 3.0 | 6.0 | 0.00 | 0.01 | 0.01 | 84 | 1022.6 |
| 20260508051612 | 38 | 70 | 6.0 | 8.0 | 0.00 | 0.01 | 0.01 | 86 | 1022.6 |
| 20260508051107 | 38 | 66 | 5.0 | 7.0 | 0.00 | 0.01 | 0.01 | 88 | 1022.6 |
| 20260508050604 | 37 | 122 | 4.0 | 6.0 | 0.00 | 0.01 | 0.01 | 88 | 1022.6 |
| 20260508045557 | 38 | 78 | 4.0 | 4.0 | 0.00 | 0.01 | 0.01 | 87 | 1022.5 |
| 20260508045055 | 38 | 73 | 3.0 | 5.0 | 0.00 | 0.01 | 0.01 | 86 | 1022.4 |
| 20260508044552 | 38 | 71 | 5.0 | 5.0 | 0.00 | 0.01 | 0.01 | 88 | 1022.2 |
| 20260508044048 | 37 | 84 | 4.0 | 4.0 | 0.00 | 0.01 | 0.01 | 92 | 1022.4 |
| 20260508043545 | 36 | 83 | 3.0 | 5.0 | 0.00 | 0.01 | 0.01 | 91 | 1022.2 |
| 20260508043043 | 36 | 73 | 6.0 | 6.0 | 0.00 | 0.01 | 0.01 | 92 | 1022.2 |
| 20260508042539 | 36 | 57 | 3.0 | 4.0 | 0.00 | 0.01 | 0.01 | 93 | 1022.3 |
| 20260508042037 | 36 | 84 | 2.0 | 3.0 | 0.00 | 0.01 | 0.01 | 93 | 1022.3 |
| 20260508041533 | 35 | 72 | 3.0 | 4.0 | 0.00 | 0.01 | 0.01 | 93 | 1022.2 |
| 20260508041029 | 35 | 77 | 4.0 | 4.0 | 0.00 | 0.01 | 0.01 | 93 | 1022.3 |
| 20260508040526 | 35 | 72 | 4.0 | 4.0 | 0.00 | 0.01 | 0.01 | 93 | 1022.3 |
| 20260508040024 | 35 | 60 | 4.0 | 4.0 | 0.00 | 0.01 | 0.01 | 93 | 1022.2 |
| 20260508035521 | 35 | 71 | 3.0 | 4.0 | 0.00 | 0.01 | 0.01 | 93 | 1022.3 |
| 20260508035018 | 35 | 40 | 4.0 | 4.0 | 0.00 | 0.01 | 0.01 | 93 | 1022.1 |
| 20260508034515 | 35 | 71 | 4.0 | 4.0 | 0.00 | 0.01 | 0.01 | 93 | 1022.2 |
| 20260508034012 | 35 | 70 | 4.0 | 5.0 | 0.00 | 0.01 | 0.01 | 93 | 1022.0 |
| 20260508033510 | 34 | 78 | 4.0 | 5.0 | 0.00 | 0.01 | 0.01 | 93 | 1021.8 |
| 20260508033007 | 34 | 63 | 5.0 | 6.0 | 0.02 | 0.01 | 0.01 | 92 | 1022.0 |
| 20260508032504 | 34 | 54 | 5.0 | 6.0 | 0.02 | 0.01 | 0.01 | 92 | 1022.0 |
| 20260508032001 | 34 | 70 | 4.0 | 5.0 | 0.00 | 0.00 | 0.00 | 93 | 1022.0 |
| 20260508031459 | 34 | 98 | 3.0 | 4.0 | 0.00 | 0.00 | 0.00 | 93 | 1021.9 |
| 20260508030953 | 34 | 119 | 4.0 | 7.0 | 0.00 | 0.00 | 0.00 | 93 | 1021.9 |
| 20260508030451 | 34 | 77 | 6.0 | 6.0 | 0.00 | 0.00 | 0.00 | 93 | 1022.0 |
| 20260508025948 | 34 | 48 | 4.0 | 5.0 | 0.02 | 0.00 | 0.00 | 93 | 1022.0 |
| 20260508025444 | 33 | 41 | 4.0 | 7.0 | 0.00 | 0.00 | 0.00 | 92 | 1021.8 |
| 20260508024942 | 34 | 69 | 5.0 | 6.0 | 0.00 | 0.00 | 0.00 | 92 | 1021.9 |
| 20260508024438 | 34 | 70 | 6.0 | 6.0 | 0.00 | 0.00 | 0.00 | 92 | 1021.9 |
| 20260508023935 | 34 | 46 | 4.0 | 5.0 | 0.00 | 0.00 | 0.00 | 91 | 1021.8 |
| 20260508023432 | 33 | 50 | 5.0 | 6.0 | 0.00 | 0.00 | 0.00 | 91 | 1021.8 |
| 20260508022929 | 33 | 47 | 6.0 | 6.0 | 0.00 | 0.00 | 0.00 | 90 | 1021.8 |
| 20260508022424 | 33 | 52 | 6.0 | 6.0 | 0.00 | 0.00 | 0.00 | 88 | 1022.0 |
| 20260508021921 | 33 | 64 | 5.0 | 6.0 | 0.00 | 0.00 | 0.00 | 87 | 1021.8 |
| 20260508021418 | 33 | 56 | 3.0 | 4.0 | 0.00 | 0.00 | 0.00 | 87 | 1021.9 |
| 20260508020913 | 33 | 55 | 4.0 | 4.0 | 0.00 | 0.00 | 0.00 | 86 | 1021.4 |
| 20260508020412 | 33 | 66 | 6.0 | 7.0 | 0.00 | 0.00 | 0.00 | 85 | 1021.4 |
| 20260508015908 | 33 | 77 | 6.0 | 6.0 | 0.00 | 0.00 | 0.00 | 83 | 1021.3 |
| 20260508015406 | 33 | 75 | 7.0 | 8.0 | 0.00 | 0.00 | 0.00 | 84 | 1021.3 |
| 20260508014902 | 33 | 80 | 6.0 | 8.0 | 0.00 | 0.00 | 0.00 | 86 | 1021.2 |
| 20260508014400 | 32 | 61 | 7.0 | 8.0 | 0.00 | 0.00 | 0.00 | 86 | 1021.5 |
| 20260508013855 | 32 | 65 | 8.0 | 9.0 | 0.00 | 0.00 | 0.00 | 85 | 1021.3 |
| 20260508013351 | 32 | 69 | 5.0 | 6.0 | 0.00 | 0.00 | 0.00 | 85 | 1021.3 |
| 20260508012849 | 31 | 78 | 5.0 | 6.0 | 0.00 | 0.00 | 0.00 | 88 | 1021.1 |
| 20260508012346 | 31 | 88 | 3.0 | 5.0 | 0.00 | 0.00 | 0.00 | 88 | 1021.1 |
| 20260508011844 | 31 | 64 | 4.0 | 4.0 | 0.00 | 0.00 | 0.00 | 87 | 1021.1 |
| 20260508011342 | 31 | 79 | 5.0 | 7.0 | 0.00 | 0.00 | 0.00 | 88 | 1021.1 |
| 20260508010838 | 31 | 79 | 4.0 | 5.0 | 0.00 | 0.00 | 0.00 | 87 | 1021.0 |
| 20260508010336 | 31 | 74 | 4.0 | 9.0 | 0.00 | 0.00 | 0.00 | 84 | 1021.0 |
| 20260508005833 | 32 | 76 | 6.0 | 7.0 | 0.00 | 0.00 | 0.00 | 85 | 1020.9 |
| 20260508005329 | 32 | 83 | 6.0 | 6.0 | 0.00 | 0.00 | 0.00 | 84 | 1020.9 |
| 20260508004825 | 33 | 72 | 7.0 | 9.0 | 0.00 | 0.00 | 0.00 | 81 | 1020.9 |
| 20260508004322 | 33 | 77 | 7.0 | 8.0 | 0.00 | 0.00 | 0.00 | 82 | 1021.0 |
| 20260508003818 | 33 | 72 | 8.0 | 10.0 | 0.00 | 0.00 | 0.00 | 83 | 1020.9 |
| 20260508003316 | 33 | 73 | 6.0 | 6.0 | 0.00 | 0.00 | 0.00 | 83 | 1020.9 |
| 20260508002812 | 33 | 73 | 6.0 | 8.0 | 0.00 | 0.00 | 0.00 | 83 | 1020.8 |
| 20260508002309 | 33 | 57 | 6.0 | 6.0 | 0.00 | 0.00 | 0.00 | 85 | 1020.7 |
| 20260508001805 | 33 | 79 | 4.0 | 6.0 | 0.00 | 0.00 | 0.00 | 85 | 1020.7 |
| 20260508001301 | 33 | 43 | 5.0 | 5.0 | 0.00 | 0.00 | 0.00 | 84 | 1020.7 |
| 20260508000758 | 33 | 39 | 6.0 | 6.0 | 0.00 | 0.00 | 0.00 | 83 | 1020.4 |
| 20260508000257 | 33 | 76 | 6.0 | 6.0 | 0.00 | 0.00 | 0.00 | 82 | 1020.5 |
| 20260507235751 | 33 | 82 | 5.0 | 6.0 | 0.00 | 0.00 | 0.00 | 82 | 1020.6 |
| 20260507235249 | 33 | 43 | 5.0 | 6.0 | 0.00 | 0.00 | 0.00 | 83 | 1020.4 |
| 20260507234745 | 33 | 52 | 5.0 | 6.0 | 0.00 | 0.00 | 0.00 | 82 | 1020.4 |
| 20260507234242 | 33 | 95 | 6.0 | 6.0 | 0.00 | 0.00 | 0.00 | 82 | 1020.3 |
| 20260507233738 | 33 | 91 | 6.0 | 6.0 | 0.00 | 0.00 | 0.00 | 83 | 1020.3 |
| 20260507233237 | 32 | 76 | 6.0 | 9.0 | 0.00 | 0.00 | 0.00 | 84 | 1020.4 |
| 20260507232734 | 33 | 60 | 9.0 | 9.0 | 0.00 | 0.00 | 0.00 | 80 | 1020.2 |
| 20260507232230 | 32 | 44 | 6.0 | 6.0 | 0.00 | 0.00 | 0.00 | 79 | 1020.3 |
| 20260507231727 | 33 | 61 | 5.0 | 6.0 | 0.00 | 0.00 | 0.00 | 79 | 1020.2 |
| 20260507231224 | 33 | 84 | 2.0 | 6.0 | 0.00 | 0.00 | 0.00 | 78 | 1020.4 |
| 20260507230720 | 32 | 82 | 5.0 | 5.0 | 0.00 | 0.00 | 0.00 | 79 | 1020.1 |
| 20260507230218 | 33 | 69 | 6.0 | 7.0 | 0.00 | 0.00 | 0.00 | 77 | 1020.2 |
| 20260507225717 | 33 | 75 | 6.0 | 8.0 | 0.00 | 0.00 | 0.00 | 77 | 1020.2 |
| 20260507225214 | 33 | 80 | 6.0 | 8.0 | 0.00 | 0.00 | 0.00 | 78 | 1019.9 |
| 20260507224710 | 32 | 76 | 7.0 | 11.0 | 0.00 | 0.00 | 0.00 | 80 | 1020.0 |
| 20260507224207 | 32 | 62 | 9.0 | 10.0 | 0.00 | 0.00 | 0.00 | 80 | 1020.0 |
| 20260507223703 | 33 | 75 | 5.0 | 5.0 | 0.00 | 0.00 | 0.00 | 76 | 1019.9 |
| 20260507223200 | 34 | 59 | 8.0 | 8.0 | 0.00 | 0.00 | 0.00 | 74 | 1020.0 |
| 20260507222657 | 33 | 81 | 6.0 | 7.0 | 0.00 | 0.00 | 0.00 | 78 | 1020.0 |
| 20260507222153 | 33 | 78 | 5.0 | 7.0 | 0.00 | 0.00 | 0.00 | 76 | 1019.9 |
| 20260507221649 | 34 | 64 | 9.0 | 10.0 | 0.00 | 0.00 | 0.00 | 76 | 1019.8 |
| 20260507221146 | 35 | 71 | 9.0 | 9.0 | 0.00 | 0.00 | 0.00 | 74 | 1019.9 |
| 20260507220643 | 34 | 89 | 6.0 | 8.0 | 0.00 | 0.00 | 0.00 | 75 | 1019.7 |
| 20260507220141 | 33 | 85 | 6.0 | 6.0 | 0.00 | 0.00 | 0.00 | 79 | 1019.6 |
| 20260507215637 | 35 | 70 | 8.0 | 9.0 | 0.00 | 0.00 | 0.00 | 74 | 1019.5 |
| 20260507215135 | 34 | 74 | 7.0 | 9.0 | 0.00 | 0.00 | 0.00 | 77 | 1019.4 |
| 20260507214631 | 34 | 70 | 7.0 | 8.0 | 0.00 | 0.00 | 0.00 | 77 | 1019.5 |
| 20260507214128 | 33 | 80 | 7.0 | 9.0 | 0.00 | 0.00 | 0.00 | 79 | 1019.5 |
| 20260507213624 | 33 | 87 | 6.0 | 9.0 | 0.00 | 0.00 | 0.00 | 79 | 1019.5 |
| 20260507213122 | 34 | 69 | 8.0 | 9.0 | 0.00 | 0.00 | 0.00 | 76 | 1019.3 |
| 20260507212617 | 34 | 71 | 8.0 | 11.0 | 0.00 | 0.00 | 0.00 | 78 | 1019.4 |
| 20260507212114 | 35 | 66 | 9.0 | 9.0 | 0.00 | 0.00 | 0.00 | 76 | 1019.4 |
| 20260507211611 | 35 | 73 | 6.0 | 7.0 | 0.00 | 0.00 | 0.00 | 78 | 1019.5 |
| 20260507211107 | 35 | 86 | 6.0 | 6.0 | 0.00 | 0.00 | 0.00 | 77 | 1019.3 |
| 20260507210605 | 35 | 86 | 4.0 | 5.0 | 0.00 | 0.00 | 0.00 | 76 | 1019.3 |
| 20260507205558 | 36 | 72 | 6.0 | 7.0 | 0.00 | 0.00 | 0.00 | 74 | 1019.2 |
| 20260507205054 | 35 | 71 | 9.0 | 9.0 | 0.00 | 0.00 | 0.00 | 76 | 1019.1 |
| 20260507204550 | 36 | 66 | 7.0 | 9.0 | 0.00 | 0.00 | 0.00 | 73 | 1019.2 |
| 20260507204048 | 36 | 69 | 8.0 | 8.0 | 0.00 | 0.00 | 0.00 | 72 | 1019.1 |
| 20260507203546 | 36 | 74 | 7.0 | 8.0 | 0.00 | 0.00 | 0.00 | 72 | 1019.1 |
| 20260507203043 | 36 | 76 | 5.0 | 7.0 | 0.00 | 0.00 | 0.00 | 72 | 1018.9 |
| 20260507202538 | 37 | 66 | 6.0 | 7.0 | 0.00 | 0.00 | 0.00 | 71 | 1019.0 |
| 20260507202035 | 37 | 84 | 6.0 | 7.0 | 0.00 | 0.00 | 0.00 | 72 | 1019.0 |
| 20260507201531 | 36 | 99 | 6.0 | 7.0 | 0.00 | 0.00 | 0.00 | 74 | 1018.9 |
| 20260507201027 | 37 | 78 | 6.0 | 9.0 | 0.00 | 0.00 | 0.00 | 73 | 1018.9 |
| 20260507200522 | 37 | 87 | 5.0 | 6.0 | 0.00 | 0.00 | 0.00 | 73 | 1018.8 |
| 20260507200019 | 37 | 75 | 5.0 | 9.0 | 0.00 | 0.00 | 0.00 | 73 | 1018.7 |
| 20260507195516 | 37 | 81 | 7.0 | 8.0 | 0.00 | 0.00 | 0.00 | 74 | 1018.8 |
| 20260507195014 | 38 | 76 | 6.0 | 6.0 | 0.00 | 0.00 | 0.00 | 75 | 1018.4 |
| 20260507194510 | 38 | 73 | 6.0 | 7.0 | 0.00 | 0.00 | 0.00 | 76 | 1018.6 |
| 20260507194006 | 38 | 80 | 5.0 | 5.0 | 0.00 | 0.00 | 0.00 | 77 | 1018.8 |
| 20260507193503 | 39 | 82 | 7.0 | 9.0 | 0.00 | 0.00 | 0.00 | 77 | 1018.5 |
| 20260507193000 | 39 | 87 | 5.0 | 6.0 | 0.00 | 0.00 | 0.00 | 76 | 1018.4 |
| 20260507192455 | 39 | 94 | 6.0 | 9.0 | 0.00 | 0.00 | 0.00 | 74 | 1018.3 |
| 20260507191953 | 40 | 66 | 7.0 | 7.0 | 0.00 | 0.00 | 0.00 | 74 | 1018.4 |
| 20260507191449 | 40 | 71 | 7.0 | 9.0 | 0.00 | 0.00 | 0.00 | 74 | 1018.1 |
| 20260507190946 | 40 | 58 | 5.0 | 6.0 | 0.00 | 0.00 | 0.00 | 73 | 1018.4 |
| 20260507190443 | 41 | 56 | 6.0 | 6.0 | 0.00 | 0.00 | 0.00 | 72 | 1018.4 |
| 20260507185942 | 41 | 65 | 5.0 | 6.0 | 0.00 | 0.00 | 0.00 | 71 | 1018.2 |
| 20260507185439 | 41 | 57 | 5.0 | 6.0 | 0.00 | 0.00 | 0.00 | 71 | 1018.3 |
| 20260507184935 | 42 | 63 | 5.0 | 6.0 | 0.00 | 0.00 | 0.00 | 69 | 1018.3 |
| 20260507184434 | 42 | 33 | 4.0 | 5.0 | 0.00 | 0.00 | 0.00 | 69 | 1018.2 |
| 20260507183931 | 42 | 355 | 2.0 | 6.0 | 0.00 | 0.00 | 0.00 | 69 | 1018.1 |
| 20260507183427 | 42 | 40 | 4.0 | 6.0 | 0.00 | 0.00 | 0.00 | 69 | 1018.0 |
| 20260507182925 | 42 | 36 | 5.0 | 7.0 | 0.00 | 0.00 | 0.00 | 69 | 1018.1 |
| 20260507182421 | 43 | 34 | 5.0 | 8.0 | 0.00 | 0.00 | 0.00 | 70 | 1018.1 |
| 20260507181917 | 43 | 22 | 7.0 | 9.0 | 0.00 | 0.00 | 0.00 | 68 | 1018.0 |
| 20260507181413 | 43 | 38 | 3.0 | 5.0 | 0.00 | 0.00 | 0.00 | 70 | 1018.0 |
| 20260507180910 | 43 | 36 | 6.0 | 6.0 | 0.00 | 0.00 | 0.00 | 69 | 1018.0 |
| 20260507180407 | 44 | 350 | 4.0 | 8.0 | 0.00 | 0.00 | 0.00 | 68 | 1017.9 |
| 20260507175903 | 44 | 315 | 6.0 | 9.0 | 0.00 | 0.00 | 0.00 | 67 | 1017.9 |
| 20260507175400 | 44 | 313 | 6.0 | 11.0 | 0.00 | 0.00 | 0.00 | 68 | 1017.8 |
| 20260507174857 | 44 | 291 | 8.0 | 12.0 | 0.00 | 0.00 | 0.00 | 68 | 1017.6 |
| 20260507174354 | 44 | 279 | 9.0 | 11.0 | 0.00 | 0.00 | 0.00 | 69 | 1017.7 |
| 20260507173852 | 44 | 297 | 9.0 | 12.0 | 0.00 | 0.00 | 0.00 | 70 | 1017.7 |
| 20260507173349 | 45 | 281 | 9.0 | 10.0 | 0.00 | 0.00 | 0.00 | 69 | 1017.7 |
| 20260507172845 | 44 | 278 | 9.0 | 10.0 | 0.00 | 0.00 | 0.00 | 70 | 1017.5 |
| 20260507172342 | 44 | 274 | 10.0 | 11.0 | 0.00 | 0.00 | 0.00 | 69 | 1017.7 |
| 20260507171838 | 44 | 281 | 10.0 | 12.0 | 0.00 | 0.00 | 0.00 | 70 | 1017.6 |
| 20260507171335 | 44 | 297 | 9.0 | 12.0 | 0.00 | 0.00 | 0.00 | 70 | 1017.7 |
| 20260507170832 | 44 | 297 | 6.0 | 11.0 | 0.00 | 0.00 | 0.00 | 66 | 1017.5 |
| 20260507170328 | 44 | 291 | 6.0 | 13.0 | 0.00 | 0.00 | 0.00 | 67 | 1017.3 |
| 20260507165824 | 45 | 314 | 8.0 | 11.0 | 0.00 | 0.00 | 0.00 | 64 | 1017.4 |
| 20260507165320 | 46 | 323 | 4.0 | 4.0 | 0.00 | 0.00 | 0.00 | 59 | 1017.4 |
| 20260507164816 | 46 | 354 | 2.0 | 3.0 | 0.00 | 0.00 | 0.00 | 58 | 1017.4 |
| 20260507164314 | 46 | 322 | 1.0 | 2.0 | 0.00 | 0.00 | 0.00 | 60 | 1017.3 |
| 20260507163811 | 46 | 182 | 1.0 | 1.0 | 0.00 | 0.00 | 0.00 | 59 | 1017.5 |
| 20260507163309 | 46 | 351 | 2.0 | 4.0 | 0.00 | 0.00 | 0.00 | 57 | 1017.4 |
| 20260507162804 | 46 | 296 | 3.0 | 3.0 | 0.00 | 0.00 | 0.00 | 57 | 1017.0 |
| 20260507162300 | 46 | 285 | 4.0 | 4.0 | 0.00 | 0.00 | 0.00 | 56 | 1017.1 |
| 20260507161758 | 46 | 321 | 3.0 | 4.0 | 0.00 | 0.00 | 0.00 | 53 | 1017.2 |
| 20260507161254 | 45 | 325 | 2.0 | 3.0 | 0.00 | 0.00 | 0.00 | 53 | 1017.1 |
| 20260507160750 | 45 | 293 | 2.0 | 4.0 | 0.00 | 0.00 | 0.00 | 60 | 1017.0 |
| 20260507160246 | 44 | 318 | 2.0 | 4.0 | 0.00 | 0.00 | 0.00 | 60 | 1017.2 |
| 20260507155742 | 44 | 332 | 3.0 | 4.0 | 0.00 | 0.00 | 0.00 | 62 | 1017.2 |
| 20260507155238 | 44 | 315 | 4.0 | 5.0 | 0.00 | 0.00 | 0.00 | 61 | 1017.0 |
| 20260507154735 | 44 | 328 | 5.0 | 6.0 | 0.00 | 0.00 | 0.00 | 62 | 1017.0 |
| 20260507154233 | 44 | 311 | 5.0 | 6.0 | 0.00 | 0.00 | 0.00 | 61 | 1017.0 |
| 20260507153729 | 44 | 306 | 4.0 | 5.0 | 0.00 | 0.00 | 0.00 | 63 | 1016.9 |
| 20260507153226 | 44 | 316 | 5.0 | 5.0 | 0.00 | 0.00 | 0.00 | 63 | 1016.9 |
| 20260507152722 | 44 | 303 | 5.0 | 6.0 | 0.00 | 0.00 | 0.00 | 62 | 1017.0 |
| 20260507152219 | 45 | 320 | 5.0 | 6.0 | 0.00 | 0.00 | 0.00 | 60 | 1017.0 |
| 20260507151715 | 46 | 303 | 4.0 | 4.0 | 0.00 | 0.00 | 0.00 | 57 | 1017.1 |
| 20260507151211 | 45 | 92 | 3.0 | 5.0 | 0.00 | 0.00 | 0.00 | 58 | 1017.0 |
| 20260507150708 | 44 | 20 | 2.0 | 5.0 | 0.00 | 0.00 | 0.00 | 60 | 1016.9 |
| 20260507150205 | 43 | 22 | 2.0 | 4.0 | 0.00 | 0.00 | 0.00 | 62 | 1016.9 |
| 20260507145701 | 43 | 8 | 3.0 | 4.0 | 0.00 | 0.00 | 0.00 | 64 | 1017.2 |
| 20260507145158 | 42 | 315 | 4.0 | 6.0 | 0.00 | 0.00 | 0.00 | 66 | 1017.2 |
| 20260507144654 | 42 | 317 | 4.0 | 7.0 | 0.00 | 0.00 | 0.00 | 65 | 1017.1 |
| 20260507144153 | 43 | 292 | 9.0 | 10.0 | 0.00 | 0.00 | 0.00 | 64 | 1016.9 |
| 20260507143649 | 43 | 267 | 9.0 | 13.0 | 0.00 | 0.00 | 0.00 | 64 | 1016.9 |
| 20260507143146 | 43 | 99 | 2.0 | 9.0 | 0.00 | 0.00 | 0.00 | 65 | 1016.8 |
| 20260507142642 | 43 | 60 | 3.0 | 4.0 | 0.00 | 0.00 | 0.00 | 60 | 1016.9 |
| 20260507142139 | 43 | 320 | 3.0 | 5.0 | 0.00 | 0.00 | 0.00 | 59 | 1017.0 |
| 20260507141635 | 43 | 332 | 4.0 | 4.0 | 0.00 | 0.00 | 0.00 | 63 | 1016.8 |
| 20260507141132 | 43 | 335 | 2.0 | 4.0 | 0.00 | 0.00 | 0.00 | 62 | 1017.0 |
| 20260507140628 | 44 | 325 | 3.0 | 5.0 | 0.00 | 0.00 | 0.00 | 61 | 1016.7 |
| 20260507140126 | 44 | 283 | 4.0 | 4.0 | 0.00 | 0.00 | 0.00 | 62 | 1016.8 |
| 20260507135623 | 45 | 294 | 2.0 | 4.0 | 0.00 | 0.00 | 0.00 | 57 | 1016.6 |
| 20260507135120 | 45 | 247 | 2.0 | 4.0 | 0.00 | 0.00 | 0.00 | 61 | 1016.7 |
| 20260507134616 | 45 | 36 | 1.0 | 4.0 | 0.00 | 0.00 | 0.00 | 58 | 1016.6 |
| 20260507134112 | 44 | 274 | 2.0 | 3.0 | 0.00 | 0.00 | 0.00 | 62 | 1016.7 |
| 20260507133608 | 44 | 276 | 3.0 | 6.0 | 0.00 | 0.00 | 0.00 | 60 | 1016.5 |
| 20260507133106 | 44 | 144 | 7.0 | 9.0 | 0.00 | 0.00 | 0.00 | 60 | 1016.7 |
| 20260507132603 | 44 | 99 | 4.0 | 8.0 | 0.00 | 0.00 | 0.00 | 62 | 1016.4 |
| 20260507132059 | 44 | 100 | 4.0 | 8.0 | 0.00 | 0.00 | 0.00 | 61 | 1016.5 |
| 20260507131556 | 43 | 72 | 3.0 | 6.0 | 0.00 | 0.00 | 0.00 | 64 | 1016.6 |
| 20260507131054 | 43 | 137 | 3.0 | 8.0 | 0.00 | 0.00 | 0.00 | 63 | 1016.5 |
| 20260507130550 | 43 | 93 | 6.0 | 10.0 | 0.00 | 0.00 | 0.00 | 63 | 1016.6 |
| 20260507130048 | 43 | 59 | 1.0 | 9.0 | 0.00 | 0.00 | 0.00 | 65 | 1016.7 |
| 20260507125547 | 42 | 103 | 5.0 | 8.0 | 0.00 | 0.00 | 0.00 | 62 | 1016.6 |
| 20260507125044 | 42 | 129 | 4.0 | 11.0 | 0.00 | 0.00 | 0.00 | 62 | 1016.4 |
| 20260507124540 | 43 | 157 | 4.0 | 12.0 | 0.00 | 0.00 | 0.00 | 61 | 1016.3 |
| 20260507124038 | 42 | 150 | 8.0 | 13.0 | 0.00 | 0.00 | 0.00 | 63 | 1016.5 |
| 20260507123536 | 42 | 159 | 6.0 | 11.0 | 0.00 | 0.00 | 0.00 | 61 | 1016.3 |
| 20260507123032 | 43 | 155 | 6.0 | 9.0 | 0.00 | 0.00 | 0.00 | 62 | 1016.3 |
| 20260507122528 | 43 | 153 | 10.0 | 11.0 | 0.00 | 0.00 | 0.00 | 61 | 1016.3 |